GALILEO 32 (137)

导读

GALILEO 32 (137)是欧洲空间局(ESA)于2024年9月17日发射的伽利略系统导航卫星。作为伽利略全球卫星导航系统的组成部分,它将补充增强该系统的星座覆盖能力,提升全球定位、导航与授时服务的精度与稳定性,助力欧洲在卫星导航领域保持自主独立性,为全球用户提供更可靠的导航服务。

基本信息
目录编号:
61182
目录名称:
GALILEO 32 (137)
国际标识:
2024-167A
轨道中心:
EARTH
卫星名称:
GALILEO 32 (137)
卫星全名:
GALILEO 32 (137)
卫星状态:
在轨 (已飞行634 天)
发射日期:
2024-09-17 UTC
国别 :
(ESA)
星等 :
--
轨道信息
数据来源 国际轨道数据 AOE轨道数据
星历时间 2026-06-11T18:25:37+0800
1天前
查看轨道信息
2026-06-11T03:00:00+0800
2天前
查看轨道信息
半长轴 29600.297km 29600.297km
偏心率 0.0006123 0.0006025
轨道倾角 55.186° 55.187°
近地点辐角 225.524° 225.098°
升交点赤经 221.472° 221.489°
平近点角 172.586° 138.515°
近地点 23204.035km 23204.325km
远地点 23240.285km 23239.995km
周期 844.703分钟 844.703分钟
每日圈数 1.704742 1.704742
详细信息
使用方式:
暂无
2D轨道图
3D轨道图
轨道高度分析图
轨道倾角分析图
轨道综合分析图
查看轨道综合分析图